[[{"header":{"parameterUnit":"m.s-1","parameterCategory":1,"la1":30.2991,"la2":30.254,"lo1":-89.0895,"lo2":-89.0444,"dy":0.0017,"dx":0.0017,"nx":28,"ny":28,"refTime":"2025-03-31T03:00:00:Z","depth":0,"parameterNumber":2,"parameterNumberName":"U-component_of_WINDS"},"data":[0,0,0,0,0,0,0,0,0,0,0,0,0,0,0,0,0,0,0,0,0,0,0,0,0,0,0,0,0,0,0,0,0,0,0,0,0,0,0,0,0,0,0,0,0,0,0,0,0,0,0,0,0,0,0,0,0,0,-2.7767,-2.7768,0,-2.7861,-2.7862,-2.7863,-2.7886,-2.7885,-2.7885,-2.7884,-2.798,-2.7983,-2.7986,0,0,0,0,0,0,0,0,0,0,0,0,0,-2.7611,-2.7614,-2.7767,-2.7768,-2.777,-2.786,-2.7862,-2.7863,-2.7886,-2.7885,-2.7884,-2.7884,-2.7979,-2.7983,-2.7986,0,0,0,0,0,0,0,0,0,0,0,0,0,-2.7689,-2.7615,-2.7767,-2.7792,-2.7795,-2.786,-2.7862,-2.7863,-2.7886,-2.7885,-2.7884,-2.7883,-2.7978,-2.7982,-2.7987,-2.8034,0,0,-2.8001,-2.8003,0,0,0,0,0,0,0,0,-2.7685,-2.7695,-2.7787,-2.779,-2.7794,-2.7861,-2.7842,-2.792,-2.7886,-2.7852,-2.7884,-2.7883,-2.7941,-2.7949,-2.7968,-2.8038,-2.8042,-2.8001,-2.8004,-2.8006,-2.8008,0,0,0,0,0,0,0,-2.7679,-2.7691,-2.7804,-2.7788,-2.7793,-2.7799,-2.7809,-2.7857,-2.79,-2.7854,-2.7856,-2.7867,-2.7943,-2.7963,-2.797,-2.8044,-2.8001,-2.8005,-2.8008,-2.801,-2.8159,-2.816,0,0,0,0,0,0,-2.7669,-2.7686,-2.7801,-2.7807,-2.7736,-2.7803,-2.7814,-2.784,-2.79,-2.7908,-2.7868,-2.7868,-2.7956,-2.7965,-2.7974,-2.8033,-2.8006,-2.8011,-2.8013,-2.8158,-2.8159,-2.816,0,0,0,0,0,0,-2.7666,-2.7679,-2.7797,-2.7747,-2.7763,-2.7806,-2.7836,-2.7842,-2.7863,-2.791,-2.7918,-2.7881,-2.7956,-2.7967,-2.8019,-2.8037,-2.8013,-2.8017,-2.8156,-2.8158,-2.816,-2.8152,0,0,0,0,0,0,-2.7661,-2.7678,-2.7695,-2.7747,-2.7765,-2.784,-2.7837,-2.7845,-2.7871,-2.7872,-2.7924,-2.7932,-2.7956,-2.8012,-2.8024,-2.8043,-2.8021,-2.8155,-2.8157,-2.8159,-2.8151,-2.8153,-2.8156,0,0,0,0,0,-2.7655,-2.7689,-2.7696,-2.771,-2.7788,-2.7841,-2.7852,-2.7878,-2.7873,-2.7891,-2.7921,-2.793,-2.8033,-2.8017,-2.803,-2.8051,-2.8154,-2.8156,-2.8159,-2.815,-2.8153,-2.8155,0,0,0,0,0,0,-2.7638,-2.7697,-2.7705,-2.7756,-2.7794,-2.7845,-2.7869,-2.788,-2.792,-2.7919,-2.7951,-2.7962,-2.8012,-2.8037,-2.8018,-2.8101,-2.8094,-2.8099,-2.8082,-2.8086,-2.8088,-2.808,-2.8025,0,0,0,0,0,-2.7641,-2.7678,-2.7728,-2.7769,-2.7787,-2.7825,-2.7849,-2.7866,-2.7906,-2.7922,-2.7956,-2.7995,-2.8036,-2.8062,-2.8103,-2.8155,-2.8167,-2.8177,-2.8179,-2.8181,-2.8184,-2.8215,-2.822,-2.8169,-2.8169,-2.8169,0,0,-2.7645,-2.7682,-2.7704,-2.7766,-2.7797,-2.7836,-2.7838,-2.7879,-2.7908,-2.7928,-2.7979,-2.8006,-2.8051,-2.8104,-2.8128,-2.8126,-2.8202,-2.8184,-2.8185,-2.8188,-2.8218,-2.8223,-2.8227,-2.8171,-2.817,-2.817,0,0,-2.7674,-2.7706,-2.7743,-2.7775,-2.7822,-2.7847,-2.7856,-2.7907,-2.7925,-2.7976,-2.7993,-2.8029,-2.8099,-2.8131,-2.8156,-2.82,-2.821,-2.8212,-2.8224,-2.8253,-2.8257,-2.8261,-2.8277,-2.8282,-2.8216,-2.8216,-2.8216,0,-2.7674,-2.7733,-2.7762,-2.7802,-2.7829,-2.785,-2.7889,-2.7918,-2.7976,-2.7995,-2.7992,-2.8081,-2.8113,-2.8174,-2.8185,-2.8205,-2.8217,-2.8206,-2.8254,-2.8258,-2.8262,-2.8277,-2.8283,-2.8216,-2.8216,-2.8216,-2.8216,0,-2.7731,-2.7772,-2.7797,-2.7853,-2.7883,-2.7922,-2.7958,-2.7985,-2.8001,-2.8027,-2.808,-2.8119,-2.8169,-2.8185,-2.82,-2.8248,-2.8245,-2.8248,-2.8241,-2.8267,-2.8281,-2.8288,-2.8216,-2.8216,-2.8216,-2.8216,0,0,-2.775,-2.7822,-2.7831,-2.7857,-2.7911,-2.7943,-2.7985,-2.8033,-2.8056,-2.8096,-2.8132,-2.8192,-2.8195,-2.8224,-2.8243,-2.8269,-2.8302,-2.8269,-2.8271,-2.8274,-2.8358,-2.8355,-2.8361,-2.831,-2.8311,-2.8312,-2.8354,0,-2.7785,-2.7859,-2.7886,-2.7947,-2.7985,-2.8007,-2.8043,-2.8081,-2.8107,-2.8144,-2.8173,-2.8215,-2.8216,-2.8234,-2.8261,-2.8292,-2.8319,-2.829,-2.8343,-2.8345,-2.833,-2.8369,-2.8366,-2.8404,-2.836,-2.8361,-2.8362,0,-2.7836,-2.7876,-2.794,-2.7991,-2.8008,-2.804,-2.8088,-2.8123,-2.8167,-2.8184,-2.8217,-2.8235,-2.828,-2.8272,-2.8335,-2.8314,-2.8338,-2.8357,-2.836,-2.8365,-2.8354,-2.8375,-2.8417,-2.8422,-2.8371,-2.8371,-2.837,0,-2.7843,-2.7914,-2.7962,-2.7983,-2.8044,-2.8066,-2.8092,-2.8135,-2.8163,-2.8205,-2.8223,-2.827,-2.8295,-2.8331,-2.8362,-2.8353,-2.8422,-2.8416,-2.8438,-2.8438,-2.8451,-2.8449,-2.8496,-2.8467,-2.8467,-2.8467,-2.8467,0,-2.7879,-2.7917,-2.7966,-2.7995,-2.8039,-2.8072,-2.8115,-2.8143,-2.8181,-2.8217,-2.8239,-2.8272,-2.8311,-2.835,-2.8375,-2.8423,-2.8435,-2.845,-2.8456,-2.8448,-2.8446,-2.8463,-2.8461,-2.8469,-2.8468,-2.8468,-2.8468,0,-2.7894,-2.7928,-2.7981,-2.8034,-2.8049,-2.8079,-2.8125,-2.8155,-2.8183,-2.8228,-2.824,-2.8284,-2.8331,-2.8366,-2.8426,-2.8443,-2.8495,-2.8501,-2.848,-2.8483,-2.8503,-2.85,-2.8562,-2.8572,-2.8536,-2.8537,-2.8537,0,-2.7914,-2.7944,-2.8001,-2.8026,-2.8053,-2.8093,-2.8122,-2.8156,-2.8185,-2.8238,-2.8262,-2.831,-2.835,-2.8425,-2.8462,-2.8509,-2.8517,-2.8535,-2.8524,-2.8515,-2.8517,-2.8514,-2.8518,-2.8536,-2.8536,-2.8537,-2.8537,0,-2.7947,-2.7962,-2.8002,-2.8049,-2.8083,-2.8121,-2.816,-2.818,-2.8221,-2.8252,-2.8301,-2.8332,-2.8394,-2.8442,-2.8493,-2.8522,-2.8536,-2.854,-2.8548,-2.8539,-2.8526,-2.8533,-2.8484,-2.8538,-2.8538,-2.8538,-2.8538,-2.8538,-2.7965,-2.7993,-2.8038,-2.8082,-2.8115,-2.8151,-2.8182,-2.8214,-2.8254,-2.8308,-2.8325,-2.8375,-2.842,-2.849,-2.8519,-2.8559,-2.8559,-2.857,-2.8573,-2.8575,-2.8574,-2.852,-2.8569,-2.8569,-2.8569,-2.8569,-2.8569,0,-2.7999,-2.8029,-2.807,-2.8123,-2.8159,-2.817,-2.8214,-2.8242,-2.8286,-2.8326,-2.8366,-2.8422,-2.8469,-2.8511,-2.856,-2.8585,-2.8593,-2.8596,-2.8595,-2.8601,-2.8571,-2.856,-2.8589,-2.8589,-2.8589,-2.8589,-2.8589,-2.8589,-2.8021,-2.8069,-2.809,-2.8156,-2.8186,-2.8234,-2.8259,-2.8292,-2.8325,-2.8386,-2.8426,-2.8453,-2.8494,-2.8547,-2.8591,-2.8602,-2.862,-2.8622,-2.8634,-2.8606,-2.8603,-2.8601,-2.859,-2.8625,-2.8625,-2.8661,-2.8661,-2.8661]},{"header":{"parameterUnit":"m.s-1","parameterCategory":1,"la1":30.2991,"la2":30.254,"lo1":-89.0895,"lo2":-89.0444,"dy":0.0017,"dx":0.0017,"nx":28,"ny":28,"refTime":"2025-03-31T03:00:00:Z","depth":0,"parameterNumber":3,"parameterNumberName":"V-component_of_WINDS"},"data":[0,0,0,0,0,0,0,0,0,0,0,0,0,0,0,0,0,0,0,0,0,0,0,0,0,0,0,0,0,0,0,0,0,0,0,0,0,0,0,0,0,0,0,0,0,0,0,0,0,0,0,0,0,0,0,0,0,0,4.1678,4.1678,0,4.1655,4.1654,4.1654,4.1619,4.1619,4.1618,4.1617,4.159,4.159,4.159,0,0,0,0,0,0,0,0,0,0,0,0,0,4.1693,4.1693,4.1678,4.1678,4.1678,4.1655,4.1654,4.1654,4.1619,4.1619,4.1618,4.1617,4.159,4.159,4.159,0,0,0,0,0,0,0,0,0,0,0,0,0,4.1679,4.1693,4.1679,4.1658,4.1656,4.1655,4.1654,4.1654,4.1619,4.1619,4.1618,4.1617,4.1591,4.159,4.159,4.1607,0,0,4.1589,4.1589,0,0,0,0,0,0,0,0,4.168,4.1679,4.1661,4.1659,4.1657,4.1639,4.1649,4.1638,4.162,4.1633,4.1617,4.1616,4.1607,4.1605,4.1603,4.1605,4.1604,4.1589,4.1589,4.1589,4.1589,0,0,0,0,0,0,0,4.1681,4.168,4.1669,4.1661,4.1658,4.1649,4.1646,4.1647,4.1625,4.1632,4.1629,4.1627,4.1606,4.1603,4.1602,4.1604,4.1589,4.1589,4.1589,4.1589,4.1621,4.1622,0,0,0,0,0,0,4.1685,4.1681,4.167,4.1668,4.1667,4.165,4.1647,4.1646,4.1625,4.1621,4.1628,4.1626,4.1604,4.1602,4.1601,4.1621,4.1589,4.1589,4.1589,4.162,4.1621,4.1622,0,0,0,0,0,0,4.1686,4.1685,4.1671,4.1674,4.1671,4.165,4.165,4.1646,4.1643,4.1622,4.1618,4.1629,4.1603,4.1601,4.1606,4.1619,4.1589,4.1589,4.1619,4.162,4.1621,4.166,0,0,0,0,0,0,4.1686,4.1685,4.1691,4.1674,4.1671,4.1677,4.165,4.1646,4.1643,4.164,4.1623,4.1619,4.1602,4.1607,4.1606,4.1618,4.1588,4.1617,4.1619,4.1621,4.1657,4.1662,4.1667,0,0,0,0,0,4.1687,4.1702,4.1692,4.1691,4.1679,4.1678,4.1676,4.1657,4.1644,4.1651,4.1637,4.1619,4.1618,4.1607,4.1606,4.1619,4.1616,4.1619,4.1621,4.1655,4.1661,4.1667,0,0,0,0,0,0,4.172,4.17,4.1688,4.1698,4.169,4.1672,4.1679,4.1664,4.1659,4.1656,4.1633,4.1629,4.1637,4.1628,4.1617,4.1635,4.1614,4.1617,4.1641,4.1647,4.1651,4.1654,4.1588,0,0,0,0,0,4.1729,4.173,4.1712,4.1722,4.1719,4.17,4.1699,4.1685,4.1676,4.1672,4.1659,4.165,4.1647,4.1646,4.1642,4.1655,4.1652,4.1663,4.1668,4.1672,4.1675,4.1683,4.1689,4.1629,4.1629,4.1629,0,0,4.1747,4.1736,4.1738,4.1729,4.1721,4.1723,4.1697,4.17,4.1701,4.1672,4.1677,4.1667,4.1655,4.1665,4.1668,4.1657,4.169,4.1675,4.1678,4.1679,4.1686,4.1692,4.1697,4.1631,4.163,4.163,0,0,4.1781,4.1772,4.1781,4.1774,4.1763,4.175,4.1753,4.1737,4.173,4.1734,4.1713,4.1713,4.1709,4.1702,4.1698,4.1731,4.1715,4.173,4.1756,4.1764,4.1769,4.1773,4.1787,4.1792,4.1732,4.1733,4.1733,0,4.1804,4.1807,4.1787,4.1792,4.1789,4.1764,4.1773,4.1767,4.1755,4.1754,4.1742,4.1738,4.1727,4.1736,4.1745,4.1741,4.1744,4.1733,4.177,4.1774,4.1777,4.179,4.1795,4.1735,4.1734,4.1734,4.1734,0,4.1837,4.184,4.1848,4.1839,4.1837,4.1844,4.1825,4.1825,4.1812,4.1801,4.1806,4.1794,4.1788,4.1789,4.1775,4.1796,4.179,4.1774,4.1753,4.1785,4.1797,4.1802,4.1738,4.1737,4.1736,4.1736,0,0,4.1892,4.1873,4.1877,4.1873,4.1859,4.1861,4.1866,4.1862,4.1864,4.1856,4.1861,4.1859,4.1845,4.1841,4.1826,4.1833,4.1862,4.1816,4.1816,4.1827,4.1887,4.1901,4.1907,4.1851,4.1852,4.1852,4.1889,0,4.1925,4.1936,4.1918,4.1933,4.1935,4.1911,4.1917,4.1909,4.1898,4.1899,4.1886,4.1887,4.1867,4.1864,4.187,4.1858,4.1874,4.1854,4.1857,4.1857,4.1863,4.1913,4.1927,4.1962,4.1893,4.1894,4.1894,0,4.1965,4.1962,4.1977,4.1964,4.1964,4.197,4.1965,4.1966,4.1956,4.1948,4.1944,4.1927,4.1933,4.1912,4.1919,4.1906,4.1905,4.19,4.1901,4.1902,4.1879,4.1917,4.1972,4.1979,4.1901,4.19,4.19,0,4.2007,4.2005,4.2015,4.2012,4.1997,4.2001,4.1995,4.1985,4.1984,4.198,4.1979,4.1975,4.1973,4.197,4.1953,4.1939,4.1963,4.194,4.1958,4.1958,4.1965,4.1966,4.2024,4.1962,4.1961,4.1961,4.1961,0,4.2047,4.2058,4.2034,4.204,4.2052,4.2031,4.2043,4.2034,4.2025,4.203,4.2007,4.2011,4.1987,4.1989,4.1975,4.1985,4.1983,4.1978,4.1974,4.1981,4.1982,4.1982,4.198,4.1963,4.1962,4.1962,4.1962,0,4.2096,4.2081,4.209,4.2075,4.2071,4.2081,4.2068,4.2073,4.2061,4.2066,4.2066,4.2048,4.2049,4.2031,4.2027,4.2018,4.2035,4.2026,4.2039,4.2037,4.2056,4.2056,4.2118,4.2126,4.2057,4.2057,4.2058,0,4.2124,4.2132,4.2119,4.212,4.2116,4.2118,4.2117,4.2097,4.2098,4.2089,4.2095,4.2094,4.2093,4.2095,4.2082,4.2079,4.2072,4.2094,4.2071,4.2079,4.2075,4.2076,4.2078,4.2099,4.21,4.2101,4.2101,0,4.2176,4.2168,4.2169,4.2167,4.2167,4.2164,4.216,4.2162,4.2141,4.2142,4.2143,4.2142,4.214,4.214,4.2136,4.2129,4.2112,4.2108,4.2113,4.2121,4.2129,4.2128,4.2054,4.2107,4.2107,4.2106,4.2106,4.2106,4.2217,4.2224,4.2216,4.2218,4.2213,4.221,4.2214,4.2204,4.2205,4.2202,4.219,4.2194,4.2185,4.2178,4.2172,4.2175,4.2164,4.217,4.2172,4.2175,4.218,4.2127,4.2174,4.2174,4.2173,4.2173,4.2173,0,4.227,4.2264,4.2266,4.2261,4.2263,4.2247,4.2242,4.2244,4.2248,4.2242,4.2241,4.2244,4.2244,4.223,4.2229,4.2234,4.2227,4.2235,4.2236,4.2235,4.2188,4.2185,4.2241,4.2241,4.2241,4.2241,4.2241,4.2241,4.2298,4.231,4.2301,4.231,4.2304,4.2308,4.2307,4.2304,4.23,4.2304,4.2304,4.2295,4.2286,4.2285,4.2284,4.228,4.2282,4.2293,4.2287,4.2244,4.2238,4.2231,4.2229,4.2293,4.2293,4.2334,4.2334,4.2335]}]]